CW8632 Weather Reports


time (UTC)temp
C
wind
direction
speed
KPH
gust
KPH
rain 1hr
cm
rain 24hr
cm
rain mn
cm
humidity
%
barometer
mb
20260504185618 22 165 6.4 17.7 0.00 0.00 0.00 32 1008.0
20260504184629 22 149 6.4 19.3 0.00 0.00 0.00 29 1008.2
20260504183622 21 147 6.4 17.7 0.00 0.00 0.00 32 1008.5
20260504182618 21 163 9.7 17.7 0.00 0.00 0.00 33 1008.6
20260504181629 21 148 6.4 24.1 0.00 0.00 0.00 35 1008.7
20260504180624 20 230 6.4 20.9 0.00 0.00 0.00 38 1008.9
20260504175625 21 153 12.9 20.9 0.00 0.00 0.00 35 1008.9
20260504174619 21 214 12.9 19.3 0.00 0.00 0.00 33 1009.1
20260504173613 20 192 12.9 19.3 0.00 0.00 0.00 34 1009.1
20260504172646 20 160 12.9 20.9 0.00 0.00 0.00 33 1009.1
20260504171620 20 186 12.9 17.7 0.00 0.00 0.00 37 1009.2
20260504170618 20 140 11.3 16.1 0.00 0.00 0.00 39 1009.4
20260504150630 15 24 3.2 8.0 0.00 0.00 0.00 42 1009.7
20260504140618 11 341 4.8 9.7 0.00 0.00 0.00 45 1010.2
20260504130623 8 323 1.6 6.4 0.00 0.00 0.00 55 1009.9
20260504110613 7 238 3.2 27.4 0.00 0.00 0.00 55 1009.5
20260504081629 12 284 9.7 14.5 0.00 0.00 0.00 42 1008.7
20260504080616 12 307 11.3 16.1 0.00 0.00 0.00 42 1008.8
20260504050633 12 304 3.2 6.4 0.00 0.00 0.00 40 1009.7
20260504045618 12 296 1.6 6.4 0.00 0.00 0.00 42 1009.7
20260504044628 11 283 3.2 8.0 0.00 0.00 0.00 41 1009.7
20260504043617 11 346 3.2 6.4 0.00 0.00 0.00 47 1009.8
20260504042648 12 286 3.2 11.3 0.00 0.00 0.00 41 1009.7
20260504041622 11 294 4.8 6.4 0.00 0.00 0.00 50 1009.7
20260504040613 11 40 4.8 8.0 0.00 0.00 0.00 45 1009.7
20260504035614 13 284 0.0 6.4 0.00 0.00 0.00 39 1009.6
20260504034625 12 277 1.6 8.0 0.00 0.00 0.00 41 1009.6
20260504033639 10 304 4.8 8.0 0.00 0.00 0.00 52 1009.6
20260504032625 10 350 4.8 8.0 0.00 0.00 0.00 53 1009.6
20260504031630 13 39 4.8 6.4 0.00 0.00 0.00 43 1009.4
20260504030638 16 56 1.6 6.4 0.00 0.00 0.00 33 1009.3
20260504025612 18 244 6.4 11.3 0.00 0.00 0.00 23 1009.2
20260504024633 18 236 6.4 11.3 0.00 0.00 0.00 23 1009.2
20260504023622 17 246 6.4 11.3 0.00 0.00 0.00 26 1009.2
20260504022613 18 245 8.0 11.3 0.00 0.00 0.00 25 1009.2
20260504021641 19 243 6.4 8.0 0.00 0.00 0.00 23 1009.3
20260504020632 18 240 8.0 11.3 0.00 0.00 0.00 26 1009.4
20260504015630 18 245 6.4 11.3 0.00 0.00 0.00 25 1009.4
20260504014638 20 244 4.8 9.7 0.00 0.00 0.00 26 1009.4
20260504013646 21 228 6.4 9.7 0.00 0.00 0.00 21 1009.5
20260504012612 22 215 3.2 6.4 0.00 0.00 0.00 20 1009.7
20260504011625 22 220 6.4 8.0 0.00 0.00 0.00 21 1009.7
20260504010613 21 205 3.2 6.4 0.00 0.00 0.00 25 1009.9
20260504005614 21 143 6.4 8.0 0.00 0.00 0.00 25 1009.9
20260504004623 22 156 6.4 11.3 0.00 0.00 0.00 24 1010.1
20260504003617 22 165 6.4 11.3 0.00 0.00 0.00 20 1010.1
20260504002626 22 155 4.8 12.9 0.00 0.00 0.00 23 1010.1
20260504001615 22 150 6.4 16.1 0.00 0.00 0.00 19 1010.2
20260504000626 23 177 8.0 16.1 0.00 0.00 0.00 19 1010.2
20260503235652 23 143 8.0 14.5 0.00 0.00 0.00 20 1010.3
20260503234621 23 151 4.8 12.9 0.00 0.00 0.00 16 1010.4
20260503233632 23 186 6.4 19.3 0.00 0.00 0.00 16 1010.5
20260503232620 23 136 8.0 20.9 0.00 0.00 0.00 20 1010.5
20260503231614 23 126 8.0 22.5 0.00 0.00 0.00 20 1010.5
20260503230622 23 141 4.8 16.1 0.00 0.00 0.00 18 1010.7
20260503225622 23 121 4.8 11.3 0.00 0.00 0.00 22 1010.9
20260503224615 23 169 1.6 14.5 0.00 0.00 0.00 15 1011.0
20260503223625 23 144 8.0 17.7 0.00 0.00 0.00 16 1011.2
20260503222615 23 138 9.7 24.1 0.00 0.00 0.00 17 1011.3
20260503221644 23 162 9.7 17.7 0.00 0.00 0.00 17 1011.4
20260503220617 23 159 11.3 16.1 0.00 0.00 0.00 17 1011.6
20260503215619 23 184 9.7 17.7 0.00 0.00 0.00 18 1011.8
20260503214629 23 207 14.5 19.3 0.00 0.00 0.00 17 1012.0
20260503213620 23 197 8.0 24.1 0.00 0.00 0.00 21 1012.1
20260503212616 23 201 16.1 24.1 0.00 0.00 0.00 16 1012.3
20260503211627 23 188 12.9 19.3 0.00 0.00 0.00 17 1012.3
20260503210618 23 169 17.7 20.9 0.00 0.00 0.00 14 1012.5
20260503205620 23 182 14.5 29.0 0.00 0.00 0.00 21 1012.6
20260503204613 23 180 11.3 20.9 0.00 0.00 0.00 18 1012.7
20260503203622 23 173 12.9 22.5 0.00 0.00 0.00 19 1012.9
20260503202631 23 166 12.9 20.9 0.00 0.00 0.00 20 1013.0
20260503201620 23 160 12.9 17.7 0.00 0.00 0.00 21 1013.2
20260503200613 23 168 14.5 20.9 0.00 0.00 0.00 20 1013.4
20260503195617 23 220 9.7 19.3 0.00 0.00 0.00 22 1013.4
20260503194627 22 155 6.4 19.3 0.00 0.00 0.00 23 1013.7
20260503193618 22 219 14.5 19.3 0.00 0.00 0.00 23 1013.7
20260503192612 22 199 9.7 17.7 0.00 0.00 0.00 24 1014.0
20260503191623 22 145 11.3 19.3 0.00 0.00 0.00 27 1014.0
20260503190632 21 186 12.9 19.3 0.00 0.00 0.00 26 1014.2